[[{"header":{"parameterUnit":"m.s-1","parameterCategory":1,"la1":30.2991,"la2":30.254,"lo1":-89.0895,"lo2":-89.0444,"dy":0.0017,"dx":0.0017,"nx":28,"ny":28,"refTime":"2025-04-28T21:00:00:Z","depth":0,"parameterNumber":2,"parameterNumberName":"U-component_of_WINDS"},"data":[0,0,0,0,0,0,0,0,0,0,0,0,0,0,0,0,0,0,0,0,0,0,0,0,0,0,0,0,0,0,0,0,0,0,0,0,0,0,0,0,0,0,0,0,0,0,0,0,0,0,0,0,0,0,0,0,0,0,-4.3488,-4.3489,0,-4.3539,-4.3539,-4.354,-4.3461,-4.3458,-4.3455,-4.3453,-4.3504,-4.3507,-4.3511,0,0,0,0,0,0,0,0,0,0,0,0,0,-4.3323,-4.3327,-4.3488,-4.3489,-4.349,-4.3539,-4.3539,-4.354,-4.3461,-4.3458,-4.3454,-4.3451,-4.3502,-4.3507,-4.3512,0,0,0,0,0,0,0,0,0,0,0,0,0,-4.3386,-4.3328,-4.3488,-4.3456,-4.3454,-4.3539,-4.354,-4.354,-4.3462,-4.3458,-4.3454,-4.345,-4.3501,-4.3506,-4.3512,-4.3631,0,0,-4.353,-4.3533,0,0,0,0,0,0,0,0,-4.3383,-4.3393,-4.346,-4.3458,-4.3456,-4.3489,-4.35,-4.3571,-4.3463,-4.3459,-4.3453,-4.3448,-4.3502,-4.3508,-4.3526,-4.3633,-4.3635,-4.3531,-4.3534,-4.3537,-4.3538,0,0,0,0,0,0,0,-4.3379,-4.339,-4.3508,-4.3461,-4.3459,-4.3439,-4.3444,-4.3513,-4.3503,-4.3459,-4.3453,-4.346,-4.35,-4.3521,-4.3527,-4.3636,-4.3531,-4.3536,-4.3539,-4.3542,-4.3843,-4.3847,0,0,0,0,0,0,-4.3378,-4.3387,-4.3507,-4.351,-4.3409,-4.3445,-4.345,-4.3483,-4.3502,-4.3501,-4.3464,-4.3456,-4.3513,-4.352,-4.3528,-4.3667,-4.3537,-4.3542,-4.3546,-4.3838,-4.3844,-4.3849,0,0,0,0,0,0,-4.3375,-4.339,-4.3504,-4.3447,-4.346,-4.3453,-4.349,-4.3486,-4.3506,-4.3506,-4.3503,-4.3486,-4.351,-4.352,-4.3606,-4.3668,-4.3545,-4.355,-4.3833,-4.384,-4.3846,-4.3947,0,0,0,0,0,0,-4.3371,-4.3389,-4.3434,-4.3448,-4.3463,-4.3582,-4.3493,-4.349,-4.3517,-4.3507,-4.3526,-4.3525,-4.3507,-4.3598,-4.3612,-4.3674,-4.3555,-4.3827,-4.3836,-4.3844,-4.3938,-4.3956,-4.3972,0,0,0,0,0,-4.3365,-4.346,-4.3436,-4.3451,-4.3519,-4.3585,-4.3594,-4.3571,-4.3522,-4.3567,-4.3567,-4.3525,-4.366,-4.3607,-4.3622,-4.3687,-4.3823,-4.3834,-4.3844,-4.393,-4.3953,-4.3971,0,0,0,0,0,0,-4.3452,-4.3461,-4.3435,-4.3538,-4.3561,-4.3572,-4.3627,-4.3595,-4.3633,-4.3623,-4.3593,-4.3598,-4.369,-4.3698,-4.3639,-4.3803,-4.3733,-4.3747,-4.3794,-4.3815,-4.3832,-4.3827,-4.356,0,0,0,0,0,-4.3483,-4.3536,-4.3541,-4.3631,-4.3645,-4.3635,-4.3662,-4.3643,-4.3666,-4.3676,-4.3682,-4.3706,-4.3753,-4.3785,-4.3829,-4.394,-4.3942,-4.3992,-4.4009,-4.4023,-4.4034,-4.4093,-4.4115,-4.3882,-4.3882,-4.3882,0,0,-4.3547,-4.3559,-4.3594,-4.3649,-4.3665,-4.372,-4.3643,-4.3705,-4.3745,-4.3685,-4.3766,-4.3772,-4.3797,-4.3896,-4.3939,-4.3904,-4.41,-4.4036,-4.4047,-4.4051,-4.4105,-4.4127,-4.4147,-4.3889,-4.3887,-4.3886,0,0,-4.3693,-4.3708,-4.3784,-4.3802,-4.3828,-4.3821,-4.3839,-4.3855,-4.3857,-4.3938,-4.3894,-4.3942,-4.4025,-4.4045,-4.4065,-4.4221,-4.4184,-4.4237,-4.4324,-4.4381,-4.44,-4.4416,-4.447,-4.449,-4.4248,-4.4249,-4.4249,0,-4.3769,-4.3851,-4.3827,-4.3892,-4.3917,-4.3867,-4.3943,-4.3962,-4.4001,-4.402,-4.3981,-4.4084,-4.4097,-4.4199,-4.4238,-4.4257,-4.4276,-4.4232,-4.4399,-4.4415,-4.443,-4.4481,-4.4501,-4.4255,-4.4254,-4.4253,-4.4253,0,-4.3943,-4.4001,-4.4059,-4.4098,-4.4131,-4.4202,-4.4188,-4.4224,-4.4203,-4.42,-4.4284,-4.4299,-4.4345,-4.4368,-4.4348,-4.4468,-4.4446,-4.4404,-4.4333,-4.4458,-4.4506,-4.4525,-4.4263,-4.4261,-4.4259,-4.4258,0,0,-4.4141,-4.4168,-4.4189,-4.4207,-4.4233,-4.4276,-4.4346,-4.4391,-4.4422,-4.4452,-4.4508,-4.458,-4.4542,-4.4566,-4.4548,-4.4599,-4.472,-4.455,-4.455,-4.458,-4.4852,-4.4881,-4.4904,-4.4697,-4.47,-4.4703,-4.4849,0,-4.4284,-4.4403,-4.4384,-4.4499,-4.4551,-4.4506,-4.4566,-4.4588,-4.4589,-4.4633,-4.4633,-4.4685,-4.4631,-4.4645,-4.4694,-4.4695,-4.4774,-4.4684,-4.4748,-4.475,-4.474,-4.4929,-4.4961,-4.5097,-4.4868,-4.4871,-4.4873,0,-4.4466,-4.4503,-4.4623,-4.4641,-4.4662,-4.4717,-4.4757,-4.4801,-4.4826,-4.4823,-4.4851,-4.4824,-4.4893,-4.4824,-4.4918,-4.4858,-4.4883,-4.4888,-4.4893,-4.4895,-4.4817,-4.4935,-4.514,-4.516,-4.4902,-4.49,-4.4898,0,-4.4596,-4.4676,-4.4758,-4.4774,-4.4798,-4.4837,-4.4849,-4.487,-4.4899,-4.4935,-4.4953,-4.4997,-4.502,-4.5055,-4.5041,-4.4992,-4.5138,-4.5067,-4.5136,-4.5136,-4.5166,-4.5164,-4.5376,-4.5187,-4.5187,-4.5186,-4.5186,0,-4.4756,-4.4831,-4.4816,-4.4866,-4.4949,-4.4928,-4.501,-4.5017,-4.5037,-4.5087,-4.5051,-4.5099,-4.5079,-4.5126,-4.5116,-4.5195,-4.5207,-4.5205,-4.5201,-4.5207,-4.5207,-4.5221,-4.521,-4.5192,-4.5191,-4.519,-4.5189,0,-4.4914,-4.4907,-4.4993,-4.501,-4.5016,-4.5076,-4.5089,-4.5136,-4.5135,-4.52,-4.5213,-4.5211,-4.5265,-4.5255,-4.5314,-4.5308,-4.5406,-4.5392,-4.5397,-4.5393,-4.5461,-4.5454,-4.5687,-4.5716,-4.5512,-4.5514,-4.5515,0,-4.5015,-4.5071,-4.5094,-4.5126,-4.5141,-4.5192,-4.5221,-4.5204,-4.5236,-4.527,-4.5313,-4.5364,-4.5403,-4.5491,-4.5494,-4.554,-4.5524,-4.5603,-4.5531,-4.5535,-4.5523,-4.5519,-4.5524,-4.5617,-4.5619,-4.5621,-4.5622,0,-4.5195,-4.5189,-4.5233,-4.5277,-4.5313,-4.5346,-4.5376,-4.5404,-4.5389,-4.5428,-4.5482,-4.5513,-4.5574,-4.5625,-4.5667,-4.5679,-4.5649,-4.5646,-4.5664,-4.5669,-4.5669,-4.5668,-4.5434,-4.564,-4.5638,-4.5637,-4.5636,-4.5635,-4.5326,-4.5374,-4.5397,-4.5448,-4.5469,-4.5498,-4.5543,-4.5548,-4.5593,-4.5641,-4.5629,-4.5691,-4.5715,-4.577,-4.5787,-4.5835,-4.5806,-4.5832,-4.5838,-4.5844,-4.5852,-4.5664,-4.5843,-4.5843,-4.5842,-4.5842,-4.5841,0,-4.5502,-4.5515,-4.5562,-4.5605,-4.5645,-4.5615,-4.5646,-4.5681,-4.5736,-4.5762,-4.5802,-4.5865,-4.5915,-4.5923,-4.597,-4.6007,-4.5994,-4.602,-4.6015,-4.6018,-4.5876,-4.5855,-4.6029,-4.6029,-4.6029,-4.6029,-4.6029,-4.6029,-4.5598,-4.5677,-4.5675,-4.5764,-4.5777,-4.5838,-4.5858,-4.5885,-4.5906,-4.5978,-4.6019,-4.6024,-4.6043,-4.6092,-4.6136,-4.6137,-4.6155,-4.6186,-4.6181,-4.6047,-4.6029,-4.6011,-4.599,-4.619,-4.6191,-4.6319,-4.632,-4.6321]},{"header":{"parameterUnit":"m.s-1","parameterCategory":1,"la1":30.2991,"la2":30.254,"lo1":-89.0895,"lo2":-89.0444,"dy":0.0017,"dx":0.0017,"nx":28,"ny":28,"refTime":"2025-04-28T21:00:00:Z","depth":0,"parameterNumber":3,"parameterNumberName":"V-component_of_WINDS"},"data":[0,0,0,0,0,0,0,0,0,0,0,0,0,0,0,0,0,0,0,0,0,0,0,0,0,0,0,0,0,0,0,0,0,0,0,0,0,0,0,0,0,0,0,0,0,0,0,0,0,0,0,0,0,0,0,0,0,0,3.5436,3.5437,0,3.5489,3.549,3.549,3.552,3.552,3.5521,3.5521,3.557,3.5571,3.5572,0,0,0,0,0,0,0,0,0,0,0,0,0,3.5357,3.5358,3.5436,3.5437,3.5437,3.5489,3.549,3.5491,3.552,3.552,3.5521,3.5521,3.557,3.5571,3.5573,0,0,0,0,0,0,0,0,0,0,0,0,0,3.5398,3.5358,3.5436,3.5459,3.5461,3.5489,3.549,3.5491,3.552,3.552,3.5521,3.5521,3.5569,3.5571,3.5573,3.5581,0,0,3.5578,3.5579,0,0,0,0,0,0,0,0,3.5396,3.5401,3.5455,3.5457,3.546,3.5499,3.548,3.5521,3.552,3.5498,3.5521,3.5521,3.5546,3.555,3.5559,3.5583,3.5585,3.5578,3.558,3.558,3.5581,0,0,0,0,0,0,0,3.5393,3.5399,3.5457,3.5455,3.5459,3.5465,3.5471,3.5488,3.552,3.55,3.5502,3.5508,3.5547,3.5557,3.556,3.5586,3.5578,3.558,3.5581,3.5582,3.562,3.562,0,0,0,0,0,0,3.5387,3.5397,3.5455,3.5459,3.5428,3.5466,3.5473,3.5486,3.552,3.5525,3.5508,3.5509,3.5554,3.5558,3.5562,3.5575,3.558,3.5582,3.5583,3.562,3.562,3.562,0,0,0,0,0,0,3.5385,3.5392,3.5453,3.5428,3.5437,3.5467,3.5482,3.5487,3.5497,3.5526,3.5532,3.5512,3.5554,3.556,3.5576,3.5577,3.5583,3.5584,3.562,3.562,3.562,3.5599,0,0,0,0,0,0,3.5383,3.5391,3.5395,3.5428,3.5438,3.5468,3.5482,3.5488,3.55,3.5503,3.5532,3.5537,3.5555,3.5574,3.5578,3.5579,3.5586,3.562,3.562,3.562,3.5599,3.5598,3.5596,0,0,0,0,0,3.538,3.5386,3.5396,3.5402,3.5444,3.5468,3.5473,3.5495,3.55,3.5504,3.5523,3.5536,3.5576,3.5575,3.5581,3.5582,3.562,3.562,3.562,3.56,3.5598,3.5596,0,0,0,0,0,0,3.535,3.5391,3.5402,3.5419,3.544,3.5473,3.5478,3.5492,3.551,3.5512,3.5537,3.5543,3.5557,3.5571,3.557,3.5592,3.5599,3.56,3.5582,3.5581,3.5579,3.5575,3.5587,0,0,0,0,0,3.5346,3.5363,3.5397,3.5409,3.5419,3.5447,3.5458,3.5473,3.5495,3.5504,3.5524,3.5544,3.5561,3.5572,3.5589,3.5602,3.5608,3.5605,3.5604,3.5602,3.5603,3.5611,3.5611,3.5619,3.5619,3.5619,0,0,3.5336,3.5361,3.537,3.5403,3.5421,3.5438,3.5454,3.547,3.5482,3.5506,3.5524,3.5539,3.5563,3.5578,3.5586,3.559,3.5602,3.5602,3.5601,3.5602,3.5611,3.561,3.5609,3.5619,3.5619,3.5619,0,0,3.5328,3.5348,3.536,3.5379,3.5407,3.5426,3.5429,3.546,3.5472,3.5491,3.5509,3.5524,3.5552,3.5569,3.5581,3.5581,3.5593,3.5585,3.5577,3.5585,3.5585,3.5584,3.5584,3.5584,3.5586,3.5586,3.5586,0,3.5312,3.5339,3.5364,3.5381,3.5395,3.5419,3.5432,3.5448,3.5479,3.5488,3.5493,3.5531,3.5549,3.5568,3.5569,3.5577,3.5581,3.5582,3.5583,3.5583,3.5583,3.5583,3.5583,3.5585,3.5585,3.5585,3.5585,0,3.5318,3.5337,3.5343,3.5376,3.5391,3.5404,3.5432,3.5443,3.5458,3.5476,3.5495,3.5517,3.554,3.5546,3.5559,3.5568,3.557,3.5578,3.5586,3.558,3.5581,3.5581,3.5583,3.5584,3.5584,3.5584,0,0,3.5291,3.5339,3.5341,3.5357,3.539,3.5404,3.542,3.5444,3.5454,3.5475,3.5488,3.5513,3.5522,3.5536,3.5551,3.5558,3.5557,3.5566,3.5567,3.5564,3.5568,3.5562,3.5562,3.5566,3.5566,3.5566,3.5567,0,3.5287,3.5318,3.5342,3.5363,3.538,3.5404,3.5417,3.5439,3.5456,3.5473,3.5491,3.5509,3.5519,3.5528,3.5536,3.5555,3.5558,3.5556,3.5577,3.5578,3.5571,3.5562,3.5555,3.5554,3.5567,3.5567,3.5567,0,3.5287,3.531,3.5333,3.5366,3.5374,3.5386,3.5411,3.5427,3.5452,3.5464,3.548,3.5497,3.5513,3.552,3.5543,3.5541,3.5551,3.5562,3.5562,3.5565,3.5572,3.5564,3.5555,3.5554,3.5568,3.5568,3.5568,0,3.5265,3.5301,3.532,3.5333,3.5372,3.538,3.5396,3.5422,3.5435,3.5456,3.5465,3.5488,3.5499,3.5516,3.5538,3.5541,3.5558,3.5567,3.5568,3.5568,3.5571,3.557,3.5562,3.5577,3.5577,3.5577,3.5577,0,3.5258,3.5271,3.5311,3.5323,3.5338,3.5366,3.538,3.5398,3.5421,3.5436,3.5457,3.5471,3.5499,3.5515,3.5532,3.5549,3.5554,3.5564,3.5568,3.5562,3.5561,3.5569,3.5569,3.5577,3.5577,3.5577,3.5577,0,3.5236,3.5263,3.5286,3.5322,3.5332,3.5341,3.5372,3.5384,3.5403,3.5422,3.5428,3.5458,3.5478,3.5502,3.553,3.5541,3.5556,3.5563,3.5549,3.5551,3.5552,3.5551,3.5549,3.555,3.5563,3.5563,3.5563,0,3.523,3.5241,3.5279,3.5292,3.5309,3.5328,3.5343,3.5371,3.5385,3.5415,3.5423,3.5446,3.5466,3.5497,3.5521,3.5542,3.5549,3.5547,3.5552,3.5546,3.5549,3.5549,3.555,3.5545,3.5545,3.5544,3.5544,0,3.5216,3.523,3.5251,3.5278,3.5295,3.5317,3.5339,3.5348,3.538,3.5395,3.5418,3.5433,3.5463,3.5485,3.551,3.5525,3.554,3.5543,3.5544,3.5538,3.5529,3.5534,3.5545,3.5542,3.5543,3.5543,3.5543,3.5543,3.5202,3.5213,3.5243,3.5267,3.5287,3.5308,3.5321,3.5344,3.5364,3.5391,3.5406,3.5429,3.5454,3.5489,3.5505,3.5522,3.5527,3.5529,3.5529,3.5529,3.5528,3.5527,3.5526,3.5526,3.5526,3.5526,3.5526,0,3.5189,3.521,3.5232,3.5264,3.5283,3.5297,3.5323,3.5337,3.5357,3.5381,3.5401,3.5427,3.5449,3.5475,3.5498,3.5507,3.5514,3.5512,3.5512,3.5515,3.5522,3.5518,3.5506,3.5506,3.5506,3.5506,3.5506,3.5506,3.5185,3.5206,3.5223,3.5255,3.5275,3.5299,3.5313,3.5332,3.5351,3.538,3.54,3.5417,3.5442,3.5468,3.5488,3.5495,3.5503,3.5499,3.5507,3.5513,3.5515,3.5516,3.5513,3.55,3.55,3.55,3.55,3.55]}]]